Weather History for Dare County Gunnery Range, NC

Change the Weather History Date:

Sunday, February 23, 2014

  Actual Average (KMQI) Record (KMQI)
Temperature  
Mean Temperature 50 °F -  
Max Temperature 65 °F 51 °F 74 °F (1975)
Min Temperature 35 °F 38 °F 22 °F (1968)
Degree Days  
Heating Degree Days 15    
Moisture  
Dew Point 38 °F    
Average Humidity 76    
Maximum Humidity 100    
Minimum Humidity 26    
Precipitation  
Precipitation 0.00 in - - ()
Sea Level Pressure  
Sea Level Pressure 30.05 in    
Wind  
Wind Speed 3 mph (West)    
Max Wind Speed 10 mph    
Max Gust Speed -    
Visibility 10 miles    
Events      
Averages and records for this station are not official NWS values.
T = Trace of Precipitation, MM = Missing Value Source: NWS Daily Summary

Daily Weather History Graph

Daily Weather History Graph

Search for Another Location

Airport:

Trip Planner

Search our weather history database for the weather conditions in past years. The results will help you decide how hot, cold, wet, or windy it might be!

Date:

Astronomy

Feb. 23, 2014 Rise Set
Actual Time 6:41 AM EST 5:53 PM EST
Civil Twilight 6:15 AM EST 6:19 PM EST
Nautical Twilight 5:45 AM EST 6:48 PM EST
Astronomical Twilight 5:16 AM EST 7:18 PM EST
Moon 1:31 AM EST (2/23) 11:59 AM EST (2/23)
Length of Visible Light 12h 03m
Length of Day
11h 12m
Last Quarter, 39% of the Moon is Illuminated
Feb 23
Last Quarter
Mar 1
New
Mar 8
First Quarter
Mar 16
Full
Mar 23
Last Quarter

Hourly Weather History & Observations

Time (EST) Temp. Windchill Dew Point Humidity Pressure Visibility Wind Dir Wind Speed Gust Speed Precip Events Conditions
12:56 AM 39.9 °F - 39.4 °F 98% 30.12 in 12.0 mi WNW 2.3 mph - N/A   Mostly Cloudy
1:56 AM 40.1 °F - 39.6 °F 98% 30.11 in 12.0 mi NW 1.2 mph - N/A   Overcast
2:56 AM 41.5 °F - 39.6 °F 93% 30.10 in 12.0 mi WNW 2.3 mph - N/A   Overcast
3:56 AM 39.0 °F - 38.7 °F 99% 30.10 in 12.0 mi NW 2.3 mph - N/A   Scattered Clouds
4:56 AM 38.3 °F 35.9 °F 37.6 °F 97% 30.10 in 12.0 mi NW 3.5 mph - N/A   Clear
5:25 AM 39.2 °F 37.0 °F 37.4 °F 93% 30.11 in 4.0 mi NNW 3.5 mph - N/A   Partly Cloudy
5:31 AM 37.4 °F 34.9 °F 37.4 °F 100% 30.11 in 10.0 mi NW 3.5 mph - N/A   Partly Cloudy
5:56 AM 38.7 °F - 38.3 °F 99% 30.11 in 12.0 mi NW 2.3 mph - N/A   Scattered Clouds
6:13 AM 37.4 °F - 37.4 °F 100% 30.11 in 3.0 mi NNW 2.3 mph - N/A   Partly Cloudy
6:19 AM 37.4 °F - 37.4 °F 100% 30.11 in 2.0 mi North 1.2 mph - N/A   Partly Cloudy
6:25 AM 37.4 °F - 37.4 °F 100% 30.11 in 10.0 mi North 2.3 mph - N/A   Scattered Clouds
6:56 AM 36.7 °F - 36.1 °F 98% 30.11 in 2.8 mi WNW 2.3 mph - N/A   Partly Cloudy
7:01 AM 35.6 °F - 35.6 °F 100% 30.12 in 1.4 mi WNW 2.3 mph - N/A   Partly Cloudy
7:06 AM 37.4 °F - 35.6 °F 93% 30.12 in 3.0 mi NW 2.3 mph - N/A   Partly Cloudy
7:12 AM 37.4 °F - 37.4 °F 100% 30.12 in 7.0 mi WNW 1.2 mph - N/A   Partly Cloudy
7:56 AM 43.0 °F 41.3 °F 42.8 °F 99% 30.12 in 12.0 mi NW 3.5 mph - N/A   Clear
8:56 AM 50.9 °F - 46.2 °F 84% 30.12 in 12.0 mi NW 4.6 mph - N/A   Clear
9:56 AM 56.7 °F - 42.4 °F 59% 30.10 in 12.0 mi NNW 3.5 mph - N/A   Clear
10:56 AM 61.0 °F - 35.6 °F 39% 30.08 in 12.0 mi West 4.6 mph - N/A   Clear
11:56 AM 63.3 °F - 30.9 °F 30% 30.05 in 12.0 mi SSW 3.5 mph - N/A   Clear
12:56 PM 64.9 °F - 29.1 °F 26% 30.03 in 12.0 mi WSW 10.4 mph - N/A   Clear
1:56 PM 65.8 °F - 30.9 °F 27% 29.97 in 12.0 mi SW 3.5 mph - N/A   Clear
2:56 PM 65.3 °F - 30.7 °F 27% 29.97 in 12.0 mi SW 9.2 mph - N/A   Clear
3:56 PM 64.0 °F - 32.2 °F 30% 29.96 in 12.0 mi WSW 9.2 mph - N/A   Clear
4:56 PM 61.5 °F - 36.7 °F 40% 29.95 in 12.0 mi SSW 9.2 mph - N/A   Clear
5:56 PM 55.2 °F - 39.4 °F 55% 29.95 in 12.0 mi SW 4.6 mph - N/A   Clear
6:56 PM 50.0 °F - 40.3 °F 69% 29.95 in 12.0 mi South 5.8 mph - N/A   Clear
7:56 PM 50.2 °F - 42.4 °F 75% 29.94 in 12.0 mi South 5.8 mph - N/A   Mostly Cloudy
8:56 PM 49.5 °F - 42.4 °F 77% 29.93 in 12.0 mi SSW 8.1 mph - N/A   Partly Cloudy
9:56 PM 51.3 °F - 41.7 °F 70% 29.93 in 12.0 mi SSW 8.1 mph - N/A   Scattered Clouds
10:56 PM 49.5 °F - 42.8 °F 78% 29.92 in 12.0 mi Variable 1.2 mph - N/A   Mostly Cloudy
11:56 PM 47.7 °F - 44.2 °F 88% 29.90 in 12.0 mi South 4.6 mph - N/A   Mostly Cloudy